TimeCST,TemperatureF,Dew PointF,Humidity,Sea Level PressureIn,VisibilityMPH,Wind Direction,Wind SpeedMPH,Gust SpeedMPH,PrecipitationIn,Events,Conditions,WindDirDegrees,DateUTC
12:54 AM,-8.0,-13.0,79,30.03,10.0,SW,3.5,-,N/A,,Clear,220,2013-12-10 06:54:00
1:54 AM,-9.0,-13.0,83,30.04,10.0,Calm,Calm,-,N/A,,Partly Cloudy,0,2013-12-10 07:54:00
2:54 AM,-8.0,-13.0,79,30.00,10.0,Calm,Calm,-,N/A,,Mostly Cloudy,0,2013-12-10 08:54:00
3:54 AM,-8.0,-13.0,79,29.96,10.0,SE,4.6,-,N/A,,Overcast,140,2013-12-10 09:54:00
4:54 AM,-7.1,-11.9,79,29.92,10.0,SE,4.6,-,N/A,,Overcast,140,2013-12-10 10:54:00
5:51 AM,-5.8,-11.2,77,29.79,1.8,Calm,Calm,-,0.00,Snow,Light Snow,0,2013-12-10 11:51:00
5:54 AM,-6.0,-11.0,79,29.90,1.5,Calm,Calm,-,0.00,Snow,Light Snow,0,2013-12-10 11:54:00
6:08 AM,-5.8,-11.2,77,29.79,1.5,SE,3.5,-,0.00,Snow,Light Snow,130,2013-12-10 12:08:00
6:26 AM,-5.8,-11.2,77,29.78,2.0,SE,3.5,-,0.00,Snow,Light Snow,140,2013-12-10 12:26:00
6:33 AM,-5.8,-11.2,77,29.78,1.5,SE,3.5,-,0.00,Snow,Light Snow,140,2013-12-10 12:33:00
6:54 AM,-6.0,-11.0,79,29.88,1.5,SE,3.5,-,0.00,Snow,Light Snow,130,2013-12-10 12:54:00
7:24 AM,-5.8,-9.4,84,29.77,0.8,Calm,Calm,-,0.00,Snow,Light Snow,0,2013-12-10 13:24:00
7:28 AM,-5.8,-9.4,84,29.77,1.0,Calm,Calm,-,0.00,Snow,Light Snow,0,2013-12-10 13:28:00
7:43 AM,-5.8,-9.4,84,29.77,0.5,Calm,Calm,-,0.00,Snow,Snow,0,2013-12-10 13:43:00
7:54 AM,-5.1,-9.9,80,29.88,0.5,ESE,3.5,-,0.00,Snow,Snow,120,2013-12-10 13:54:00
8:52 AM,-4.0,-9.4,78,29.76,1.0,Calm,Calm,-,0.00,Snow,Light Snow,0,2013-12-10 14:52:00
8:54 AM,-4.0,-9.0,79,29.87,1.2,Calm,Calm,-,0.00,Snow,Light Snow,0,2013-12-10 14:54:00
9:04 AM,-4.0,-9.4,78,29.75,3.0,Calm,Calm,-,0.00,,Haze,0,2013-12-10 15:04:00
9:37 AM,-2.2,-9.4,71,29.75,9.0,WSW,4.6,-,0.00,,Scattered Clouds,240,2013-12-10 15:37:00
9:54 AM,-2.0,-9.0,72,29.87,10.0,WSW,5.8,-,0.00,,Clear,240,2013-12-10 15:54:00
10:54 AM,3.0,-7.1,63,29.86,10.0,WNW,8.1,-,N/A,,Clear,300,2013-12-10 16:54:00
11:54 AM,6.1,-5.1,60,29.86,10.0,West,10.4,-,0.00,,Clear,280,2013-12-10 17:54:00
12:54 PM,8.1,-2.9,61,29.86,10.0,West,9.2,-,N/A,,Clear,280,2013-12-10 18:54:00
1:54 PM,10.0,-2.0,58,29.90,10.0,West,9.2,-,N/A,,Clear,270,2013-12-10 19:54:00
2:54 PM,10.0,-2.0,58,29.92,9.0,West,6.9,18.4,N/A,,Clear,270,2013-12-10 20:54:00
3:54 PM,8.1,-2.9,61,29.96,10.0,WNW,12.7,20.7,N/A,,Clear,290,2013-12-10 21:54:00
4:54 PM,7.0,-2.9,64,30.01,10.0,West,6.9,-,N/A,,Scattered Clouds,270,2013-12-10 22:54:00
5:05 PM,6.8,-2.2,67,29.91,10.0,West,8.1,-,N/A,,Mostly Cloudy,260,2013-12-10 23:05:00
5:46 PM,6.8,-2.2,67,29.92,10.0,West,13.8,18.4,N/A,,Scattered Clouds,270,2013-12-10 23:46:00
5:54 PM,6.1,-4.0,63,30.02,10.0,West,9.2,-,N/A,,Partly Cloudy,280,2013-12-10 23:54:00
6:54 PM,5.0,-4.0,66,30.04,10.0,West,11.5,-,N/A,,Clear,280,2013-12-11 00:54:00
7:25 PM,5.0,-4.0,66,29.94,9.0,WNW,8.1,-,N/A,,Mostly Cloudy,290,2013-12-11 01:25:00
7:54 PM,5.0,-5.1,63,30.06,9.0,WNW,13.8,21.9,N/A,,Mostly Cloudy,290,2013-12-11 01:54:00
8:20 PM,3.2,-5.8,66,29.97,9.0,WNW,17.3,25.3,N/A,,Scattered Clouds,290,2013-12-11 02:20:00
8:54 PM,3.0,-7.1,63,30.09,10.0,West,10.4,24.2,N/A,,Clear,270,2013-12-11 02:54:00
9:54 PM,1.9,-7.1,66,30.11,10.0,West,8.1,-,N/A,,Clear,270,2013-12-11 03:54:00
10:54 PM,1.9,-7.1,66,30.12,10.0,West,8.1,-,N/A,,Clear,270,2013-12-11 04:54:00
11:54 PM,1.0,-8.0,66,30.14,10.0,West,5.8,-,N/A,,Clear,270,2013-12-11 05:54:00